Location: Berkeley
(37.8716°N, 122.2727°W)
Time: 15:03:24
(UTC-07:00)

Tiangong - Pass Details

Date: 02 October 2021
Orbit: 382 x 385 km, 41.5° (Epoch: 19 October)

Event Time Altitude Azimuth Distance (km) Brightness Sun altitude
Exits shadow 05:07:59 29° 45° (NE) 735 3.0 -23.9°
Drops below altitude 10° 05:09:52 10° 68° (ENE) 1,395 5.0 -23.6°
Sets 05:12:00 0° 76° (ENE) 2,248 6.4 -23.1°
